WGS F5 (USA 243)

Last updated on Sun Jun 21 2026 00:03:05 GMT+0000 (Coordinated Universal Time)

1 39168U 13024A 26171.38158376 .00000000 00000+0 00000+0 0 9993 2 39168 0.0190 1.7175 0000191 3.4151 348.3247 1.00268976 47208
UTC large
Height (km)
Speed (km/s)
/
Latitude / Longitude
Inclination (degrees)
Orbital Period (minutes)
Azimuth
Elevation
Range (km)
Doppler Factor

Next 0 passes for location: London (51.5072 / 0.1276)

No passes found over London.
WGS F5 (USA 243)